Location: Boiro
(42.6475°N, 8.8834°W)
Time: 19:44:29
(UTC+01:00)

Tiros 1 despin weight - All Passes

Search period start: 30 November 2021 00:00
Search period end: 10 December 2021 00:00
Orbit: 593 x 641 km, 48.2° (Epoch: 29 November)

Date Brightness Start Highest point End Pass type
(mag) Time Alt. Az. Time Alt. Az. Time Alt. Az.
30 Nov - 15:17:39 10° SSW 15:21:35 32° SE 15:25:32 10° ENE daylight
30 Nov - 16:58:31 10° WSW 17:02:55 67° NNW 17:07:19 10° ENE daylight
30 Nov - 18:40:44 10° WNW 18:44:54 39° N 18:49:05 10° ENE visible
30 Nov - 20:22:32 10° WNW 20:26:55 59° NNE 20:31:20 10° E visible
30 Nov - 22:04:12 10° WNW 22:08:22 40° SW 22:12:34 10° SSE visible
01 Dec - 13:55:14 10° SSE 13:56:47 12° SE 13:58:20 10° ESE daylight
01 Dec - 15:33:15 10° SW 15:37:35 58° SSE 15:41:55 10° ENE daylight
01 Dec - 17:14:55 10° W 17:19:12 49° NNW 17:23:30 10° ENE daylight
01 Dec - 18:57:05 10° WNW 19:01:17 41° N 19:05:30 10° ENE visible
01 Dec - 20:38:42 10° WNW 20:43:09 87° NNE 20:47:36 10° ESE visible
01 Dec - 22:20:49 10° W 22:24:17 22° SW 22:27:46 10° S visible
02 Dec - 14:09:06 10° S 14:12:34 23° SE 14:16:01 10° E daylight
02 Dec - 15:49:17 10° WSW 15:53:42 85° NNW 15:58:08 10° ENE daylight
02 Dec - 17:31:23 10° WNW 17:35:34 41° N 17:39:46 10° ENE daylight
02 Dec - 19:13:21 10° WNW 19:17:39 49° NNE 19:21:58 10° E visible
02 Dec - 20:54:55 10° WNW 20:59:15 57° SSW 21:03:38 10° SE visible
02 Dec - 22:38:35 10° WSW 22:40:05 11° SW 22:41:34 10° SSW night (unlit)
03 Dec - 14:24:20 10° SSW 14:28:29 41° SE 14:32:38 10° ENE daylight
03 Dec - 16:05:34 10° W 16:09:56 58° NNW 16:14:18 10° ENE daylight
03 Dec - 17:47:48 10° WNW 17:51:58 39° N 17:56:08 10° ENE daylight
03 Dec - 19:29:31 10° WNW 19:33:56 68° NNE 19:38:21 10° ESE visible
03 Dec - 21:11:19 10° WNW 21:15:14 32° SW 21:19:12 10° SSE visible
04 Dec - 13:00:57 10° S 13:03:35 16° SE 13:06:12 10° E daylight
04 Dec - 14:40:07 10° SW 14:44:31 72° SSE 14:48:55 10° ENE daylight
04 Dec - 16:22:00 10° W 16:26:15 45° N 16:30:30 10° ENE daylight
04 Dec - 18:04:07 10° WNW 18:08:20 43° N 18:12:34 10° E daylight
04 Dec - 19:45:41 10° WNW 19:50:06 78° SSW 19:54:33 10° ESE visible
04 Dec - 21:28:12 10° W 21:31:06 17° SW 21:34:03 10° S visible
05 Dec - 13:15:35 10° SSW 13:19:25 29° SE 13:23:14 10° E daylight
05 Dec - 14:56:15 10° WSW 15:00:41 73° NNW 15:05:06 10° ENE daylight
05 Dec - 16:38:27 10° WNW 16:42:37 40° N 16:46:48 10° ENE daylight
05 Dec - 18:20:20 10° WNW 18:24:40 55° NNE 18:29:01 10° E daylight
05 Dec - 20:01:57 10° WNW 20:06:10 45° SW 20:10:24 10° SE visible
06 Dec - 11:54:26 10° SE 11:54:38 10° SE 11:54:50 10° SE daylight
06 Dec - 13:31:04 10° SW 13:35:23 52° SE 13:39:41 10° ENE daylight
06 Dec - 15:12:37 10° W 15:16:57 52° NNW 15:21:16 10° ENE daylight
06 Dec - 16:54:50 10° WNW 16:59:01 40° N 17:03:12 10° ENE daylight
06 Dec - 18:36:29 10° WNW 18:40:54 80° NNE 18:45:20 10° ESE visible
06 Dec - 20:18:29 10° W 20:22:06 25° SW 20:25:44 10° SSE visible
07 Dec - 12:07:07 10° S 12:10:23 20° SE 12:13:39 10° E daylight
07 Dec - 13:47:01 10° WSW 13:51:28 87° SSE 13:55:54 10° ENE daylight
07 Dec - 15:29:04 10° W 15:33:17 42° N 15:37:30 10° ENE daylight
07 Dec - 17:11:06 10° WNW 17:15:23 47° NNE 17:19:39 10° E daylight
07 Dec - 18:52:40 10° WNW 18:57:03 64° SSW 19:01:25 10° SE visible
07 Dec - 20:35:49 10° WSW 20:37:55 13° SW 20:40:01 10° SSW visible
08 Dec - 12:22:10 10° SSW 12:26:17 36° SE 12:30:22 10° ENE daylight
08 Dec - 14:03:15 10° WSW 14:07:40 63° NNW 14:12:04 10° ENE daylight
08 Dec - 15:45:30 10° WNW 15:49:40 39° N 15:53:50 10° ENE daylight
08 Dec - 17:27:18 10° WNW 17:31:41 63° NNE 17:36:03 10° ESE daylight
08 Dec - 19:09:01 10° WNW 19:13:03 36° SW 19:17:05 10° SSE visible
09 Dec - 10:59:09 10° SSE 11:01:24 14° SE 11:03:38 10° ESE daylight
09 Dec - 12:37:52 10° SW 12:42:17 65° SSE 12:46:41 10° ENE daylight
09 Dec - 14:19:40 10° W 14:23:58 47° NNW 14:28:15 10° ENE daylight
09 Dec - 16:01:50 10° WNW 16:06:03 42° N 16:10:16 10° E daylight
09 Dec - 17:43:27 10° WNW 17:47:52 86° SSW 17:52:17 10° ESE daylight
09 Dec - 19:25:44 10° W 19:28:55 20° SW 19:32:07 10° S visible
